星链-34580(STARLINK-34580)

导读

STARLINK-34580是美国SpaceX公司星链星座的成员卫星,于2025年9月26日发射入轨。星链星座旨在为全球提供高速宽带互联网服务,尤其覆盖偏远地区。该卫星属于低轨通信卫星,采用平板设计,搭载Ku/Ka波段通信载荷,配备氪工质霍尔推进器,具备自主避撞能力,寿命末期会主动离轨坠入大气层焚毁,设计使用寿命约5-7年,是星链全球互联网组网的重要组成部分。

基本信息
目录编号:
65808
目录名称:
STARLINK-34580
国际标识:
2025-218T
轨道中心:
EARTH
卫星名称:
星链-34580
卫星全名:
星链-34580(STARLINK-34580)
卫星状态:
在轨 (已飞行343 天)
发射日期:
2025-09-26 UTC
国别 :
美国 (US)
星等 :
--
轨道信息
数据来源 国际轨道数据
星历时间: 2026-09-04T04:00:02+0800
9小时前
查看轨道信息
半长轴: 6867.25km
偏心率: 0.0001636
轨道倾角: 97.285°
近地点辐角 88.131°
升交点赤经 104.472°
平近点角 191.437°
近地点: 487.989km
远地点: 490.237km
周期: 94.392分钟
每日圈数: 15.255572
详细信息
固有亮度:
5
最大亮度:
2.5
卫星平台:
Starlink V1.0
覆盖范围:
全球
运营商:
太空探索技术公司
运营商所在国:
美国
制造商(研发单位):
太空探索技术公司
制造商所在国:
美国
使用方式:
暂无
卫星简介
Starlink 计划是 SpaceX 推出的全球卫星互联网项目,通过发射低轨道卫星,为全球尤其是偏远地区提供高速、低延迟的互联网服务。自 2019 年起,Starlink 已部署数千颗卫星,旨在缩小全球数字鸿沟,推动互联网普及。该项目还为军事、航空等行业提供通信支持,带来广泛经济效益。
2D轨道图
3D轨道图
轨道高度分析图
轨道倾角分析图
轨道综合分析图
查看轨道综合分析图
交会数据列表
事件ID 空间交会对象 最接近时刻(TCA) 交会距离 交会风险概率(CRP) 交会风险指数(CRI) 操作
CDM_260904-161006-580806-602021
2026-09-04T
16:10:02+0000
1.589 km
极远距离
5.033108E-6 低风险 0.49
CDM_260905-034704-566006-580821
2026-09-05T
03:47:16+0000
1.656 km
极远距离
4.832729E-6 低风险 0.49
CDM_260903-211805-951906-580821
2026-09-03T
21:18:18+0000
1.588 km
极远距离
4.534457E-6 低风险 0.48
CDM_260904-183006-580806-602021
2026-09-04T
18:30:48+0000
1.779 km
极远距离
3.584903E-6 低风险 0.46
CDM_260904-103405-284606-580821
2026-09-04T
10:34:36+0000
1.948 km
极远距离
3.03819E-6 低风险 0.45
CDM_260905-030004-566006-580821
2026-09-05T
03:00:30+0000
2.517 km
极远距离
1.716317E-6 低风险 0.4
CDM_260904-000706-395706-580821
2026-09-04T
00:07:34+0000
2.693 km
极远距离
1.49122E-6 低风险 0.38
CDM_260904-231205-343006-580821
2026-09-04T
23:12:17+0000
2.785 km
极远距离
1.298285E-6 低风险 0.37